Location: Clermont
(50.2608°N, 4.3172°E)
Time: 15:12:38
(UTC+00:00)

Cosmos 1536 - Pass Details

Date: 13 August 2020
Orbit: 541 x 558 km, 82.5° (Epoch: 18 September)

Event Time Altitude Azimuth Distance (km) Brightness Sun altitude
Exits shadow 22:11:31 82° 114° (ESE) 556 2.6 -22.1°
Maximum altitude 22:11:33 82° 98° (E) 556 2.6 -22.1°
Drops below altitude 10° 22:15:34 10° 12° (NNE) 1,819 6.2 -22.4°
Sets 22:17:43 0° 11° (NNE) 2,716 7.2 -22.5°
